GW6774 Weather Reports


time (UTC)temp
F
wind
direction
speed
knots
gust
knots
rain 1hr
in
rain 24hr
in
rain mn
in
humidity
%
barometer
mb
20260506014012 68 200 0.0 1.7 0.00 0.00 0.00 53 1013.0
20260506013507 69 192 0.0 0.0 0.00 0.00 0.00 53 1012.8
20260506013406 69 192 0.0 0.0 0.00 0.00 0.00 51 1012.7
20260506013400 69 192 0.0 0.0 0.00 0.00 0.00 52 1012.9
20260506012002 70 192 0.0 0.0 0.00 0.00 0.00 51 1012.7
20260506011501 70 192 0.0 0.0 0.00 0.00 0.00 51 1012.7
20260506011255 70 192 0.0 0.0 0.00 0.00 0.00 51 1012.6
20260506010808 70 192 0.0 0.0 0.00 0.00 0.00 51 1012.8
20260506010001 70 192 0.0 0.0 0.00 0.00 0.00 50 1012.8
20260506005502 71 192 0.0 0.0 0.00 0.00 0.00 49 1013.0
20260506005256 71 192 0.0 0.9 0.00 0.00 0.00 49 1012.9
20260506004756 71 192 0.0 0.9 0.00 0.00 0.00 49 1012.8
20260506004002 71 192 0.0 0.9 0.00 0.00 0.00 48 1012.7
20260506003503 71 192 0.0 0.9 0.00 0.00 0.00 48 1012.7
20260506003002 72 190 0.0 0.9 0.00 0.00 0.00 47 1012.6
20260506002502 72 190 0.0 2.6 0.00 0.00 0.00 46 1012.7
20260506002002 73 173 0.0 2.6 0.00 0.00 0.00 46 1012.7
20260506001500 73 175 0.0 0.9 0.00 0.00 0.00 45 1012.6
20260506001001 74 302 0.0 0.9 0.00 0.00 0.00 45 1012.7
20260506000506 74 302 0.0 0.9 0.00 0.00 0.00 44 1012.8
20260506000001 74 286 0.0 0.9 0.00 0.00 0.00 44 1012.8
20260505235504 74 279 0.0 1.7 0.00 0.00 0.00 43 1012.9
20260505235002 75 279 0.0 2.6 0.00 0.00 0.00 42 1012.9
20260505234502 75 219 0.9 3.5 0.00 0.00 0.00 43 1012.8
20260505234002 76 341 0.0 3.5 0.00 0.00 0.00 42 1012.8
20260505233458 76 262 0.0 3.5 0.00 0.00 0.00 41 1012.7
20260505233302 76 166 0.9 3.5 0.00 0.00 0.00 41 1012.5
20260505232457 76 127 0.0 1.7 0.00 0.00 0.00 42 1012.5
20260505231953 77 341 0.0 3.5 0.00 0.00 0.00 41 1012.4
20260505231454 77 171 0.0 3.5 0.00 0.00 0.00 41 1012.4
20260505231248 77 176 0.0 1.7 0.00 0.00 0.00 42 1012.4
20260505230447 78 182 0.9 5.2 0.00 0.00 0.00 41 1012.5
20260505225948 78 137 2.6 5.2 0.00 0.00 0.00 39 1012.4
20260505225446 78 168 1.7 3.5 0.00 0.00 0.00 40 1012.5
20260505224949 77 149 0.9 5.2 0.00 0.00 0.00 41 1012.5
20260505224444 78 182 1.7 5.2 0.00 0.00 0.00 41 1012.5
20260505224246 78 94 0.9 5.2 0.00 0.00 0.00 41 1012.6
20260505223443 78 63 1.7 5.2 0.00 0.00 0.00 41 1012.3
20260505222942 79 217 1.7 5.2 0.00 0.00 0.00 41 1012.4
20260505222444 79 161 1.7 4.3 0.00 0.00 0.00 41 1012.4
20260505221940 79 79 1.7 6.1 0.00 0.00 0.00 42 1012.3
20260505221442 79 252 1.7 6.1 0.00 0.00 0.00 42 1012.2
20260505221236 80 0 0.9 2.6 0.00 0.00 0.00 42 1012.1
20260505220800 80 141 0.9 4.3 0.00 0.00 0.00 42 1012.4
20260505215939 80 145 0.9 5.2 0.00 0.00 0.00 42 1012.5
20260505215733 80 158 1.7 5.2 0.00 0.00 0.00 40 1012.3
20260505214938 79 131 1.7 4.3 0.00 0.00 0.00 39 1012.4
20260505214438 80 223 0.9 2.6 0.00 0.00 0.00 41 1012.5
20260505214233 80 197 0.9 3.5 0.00 0.00 0.00 41 1012.5
20260505213433 80 329 1.7 3.5 0.00 0.00 0.00 39 1012.7
20260505212933 80 327 1.7 2.6 0.00 0.00 0.00 38 1012.6
20260505212436 81 189 0.9 3.5 0.00 0.00 0.00 40 1012.5
20260505211932 80 110 1.7 4.3 0.00 0.00 0.00 38 1012.5
20260505211431 80 116 1.7 9.6 0.00 0.00 0.00 38 1012.5
20260505210930 80 189 0.9 9.6 0.00 0.00 0.00 40 1012.7
20260505210431 81 269 0.9 5.2 0.00 0.00 0.00 38 1012.7
20260505205929 81 168 0.9 4.3 0.00 0.00 0.00 41 1012.8
20260505205431 80 289 1.7 5.2 0.00 0.00 0.00 41 1012.8
20260505204925 80 302 1.7 5.2 0.00 0.00 0.00 40 1012.9
20260505204426 81 164 1.7 4.3 0.00 0.00 0.00 41 1012.9
20260505203920 81 127 1.7 6.1 0.00 0.00 0.00 39 1013.0
20260505203419 81 148 0.9 6.1 0.00 0.00 0.00 41 1013.0
20260505202920 80 313 1.7 6.1 0.00 0.00 0.00 41 1013.0
20260505202416 81 145 1.7 4.3 0.00 0.00 0.00 40 1013.0
20260505201917 81 237 1.7 4.3 0.00 0.00 0.00 41 1013.1
20260505201720 81 245 1.7 3.5 0.00 0.00 0.00 40 1013.2
20260505200914 81 72 0.9 2.6 0.00 0.00 0.00 41 1013.5
20260505200709 81 183 0.0 2.6 0.00 0.00 0.00 39 1013.5
20260505195915 82 114 1.7 5.2 0.00 0.00 0.00 41 1013.4
20260505195417 81 299 2.6 5.2 0.00 0.00 0.00 38 1013.4
20260505194914 81 149 1.7 3.5 0.00 0.00 0.00 38 1013.4
20260505194414 81 137 2.6 8.7 0.00 0.00 0.00 40 1013.7
20260505193915 81 48 2.6 8.7 0.00 0.00 0.00 44 1013.7
20260505193413 80 0 1.7 3.5 0.00 0.00 0.00 42 1013.5
20260505192914 80 313 1.7 4.3 0.00 0.00 0.00 41 1013.8
20260505192414 81 96 1.7 4.3 0.00 0.00 0.00 43 1013.9
20260505192157 81 138 0.9 4.3 0.00 0.00 0.00 40 1013.9
20260505191413 80 266 0.9 4.3 0.00 0.00 0.00 42 1014.0
20260505191215 79 296 1.7 4.3 0.00 0.00 0.00 42 1014.0
20260505190414 79 166 0.9 3.5 0.00 0.00 0.00 40 1014.1
20260505185914 79 206 1.7 3.5 0.00 0.00 0.00 42 1014.1
20260505185706 79 51 1.7 3.5 0.00 0.00 0.00 42 1014.4
20260505184913 78 175 1.7 4.3 0.00 0.00 0.00 41 1014.3
20260505184414 78 107 1.7 4.3 0.00 0.00 0.00 39 1014.4
20260505183913 79 85 1.7 5.2 0.00 0.00 0.00 39 1014.5
20260505183414 80 148 1.7 5.2 0.00 0.00 0.00 42 1014.7
20260505182915 80 165 0.9 7.8 0.00 0.00 0.00 42 1014.8
20260505182731 80 137 3.5 7.8 0.00 0.00 0.00 39 1014.8
20260505181914 80 114 0.9 4.3 0.00 0.00 0.00 43 1014.9
20260505181413 80 286 1.7 3.5 0.00 0.00 0.00 41 1015.0
20260505180914 79 292 0.9 5.2 0.00 0.00 0.00 43 1015.1
20260505180714 80 199 1.7 5.2 0.00 0.00 0.00 39 1015.2
20260505175914 80 196 1.7 6.1 0.00 0.00 0.00 42 1015.3
20260505175728 79 306 0.9 6.1 0.00 0.00 0.00 43 1015.3
20260505174909 79 149 1.7 5.2 0.00 0.00 0.00 43 1015.4
20260505174409 78 306 0.9 6.1 0.00 0.00 0.00 41 1015.2
20260505174011 79 128 1.7 3.5 0.00 0.00 0.00 44 1015.5
20260505173951 79 144 2.6 6.1 0.00 0.00 0.00 42 1015.4
20260505172902 79 159 1.7 6.1 0.00 0.00 0.00 43 1015.4
20260505172401 79 145 0.9 6.1 0.00 0.00 0.00 45 1015.4
20260505172210 79 140 0.0 2.6 0.00 0.00 0.00 45 1015.4
20260505171401 80 283 0.9 5.2 0.00 0.00 0.00 44 1015.4
20260505171216 79 248 2.6 6.1 0.00 0.00 0.00 44 1015.5
20260505170402 78 217 1.7 6.1 0.00 0.00 0.00 46 1015.4
20260505165902 79 87 0.9 3.5 0.00 0.00 0.00 46 1015.4
20260505165402 79 336 0.9 2.6 0.00 0.00 0.00 44 1015.4
20260505164900 79 317 1.7 2.6 0.00 0.00 0.00 43 1015.5
20260505164358 79 97 1.7 3.5 0.00 0.00 0.00 40 1015.5
20260505164155 78 243 1.7 3.5 0.00 0.00 0.00 43 1015.6
20260505163353 79 173 1.7 3.5 0.00 0.00 0.00 44 1015.7
20260505163054 77 248 0.9 6.1 0.00 0.00 0.00 48 1015.8
20260505163022 78 324 0.9 2.6 0.00 0.00 0.00 49 1015.9
20260505161853 77 100 0.9 6.1 0.00 0.00 0.00 47 1016.0
20260505161348 76 145 1.7 4.3 0.00 0.00 0.00 45 1016.0
20260505160851 76 23 1.7 9.6 0.00 0.00 0.00 47 1016.0
20260505160348 76 202 2.6 9.6 0.00 0.00 0.00 44 1016.0
20260505153338 75 216 1.7 5.2 0.00 0.00 0.00 51 1016.0
20260505152839 74 99 0.9 5.2 0.00 0.00 0.00 53 1016.0
20260505152339 73 42 1.7 4.3 0.00 0.00 0.00 57 1016.1
20260505151837 73 137 2.6 4.3 0.00 0.00 0.00 54 1016.4
20260505151333 73 72 2.6 4.3 0.00 0.00 0.00 54 1016.3
20260505150904 72 82 1.7 4.3 0.00 0.00 0.00 56 1016.3
20260505150330 71 164 2.6 4.3 0.00 0.00 0.00 56 1016.3
20260505140314 67 152 0.9 2.6 0.00 0.00 0.00 63 1015.7
20260505130306 59 27 0.9 2.6 0.00 0.00 0.00 74 1015.2
20260505124803 58 79 0.0 1.7 0.00 0.00 0.00 76 1015.1
20260505124301 58 79 0.9 1.7 0.00 0.00 0.00 77 1015.1
20260505124058 58 76 0.9 1.7 0.00 0.00 0.00 77 1015.0
20260505123258 57 80 0.0 1.7 0.00 0.00 0.00 78 1015.1
20260505122758 57 47 0.0 0.9 0.00 0.00 0.00 79 1015.0
20260505122255 56 30 0.0 1.7 0.00 0.00 0.00 79 1015.0
20260505121752 55 37 0.0 1.7 0.00 0.00 0.00 80 1015.0
20260505121252 55 0 0.9 0.9 0.00 0.00 0.00 81 1015.1
20260505120752 54 310 0.0 0.9 0.00 0.00 0.00 84 1015.1
20260505120250 54 292 0.0 0.9 0.00 0.00 0.00 84 1014.9
20260505115750 53 292 0.0 0.0 0.00 0.00 0.00 85 1014.8
20260505115253 52 292 0.0 0.0 0.00 0.00 0.00 86 1014.8
20260505114744 52 292 0.0 0.0 0.00 0.00 0.00 86 1014.6
20260505114241 51 292 0.0 0.0 0.00 0.00 0.00 87 1014.6
20260505113742 51 292 0.0 0.0 0.00 0.00 0.00 87 1014.5
20260505113239 50 292 0.0 0.0 0.00 0.00 0.00 88 1014.4
20260505112740 49 292 0.0 0.0 0.00 0.00 0.00 88 1014.5
20260505112536 49 292 0.0 0.0 0.00 0.00 0.00 88 1014.3
20260505112115 49 292 0.0 0.0 0.00 0.00 0.00 88 1014.4
20260505111239 48 292 0.0 0.0 0.00 0.00 0.00 88 1014.4
20260505110739 48 292 0.0 0.0 0.00 0.00 0.00 88 1014.4
20260505110237 48 292 0.0 0.0 0.00 0.00 0.00 88 1014.4
20260505102108 49 292 0.0 1.7 0.00 0.00 0.00 86 1014.4
20260505101230 49 292 0.0 1.7 0.00 0.00 0.00 86 1014.4
20260505100731 49 292 0.0 0.0 0.00 0.00 0.00 85 1014.5
20260505100231 49 292 0.0 0.9 0.00 0.00 0.00 86 1014.3
20260505095730 49 292 0.0 0.9 0.00 0.00 0.00 86 1014.1
20260505095342 49 292 0.0 0.0 0.00 0.00 0.00 86 1014.1
20260505095317 49 292 0.0 0.9 0.00 0.00 0.00 86 1014.2
20260505094229 49 292 0.0 1.7 0.00 0.00 0.00 86 1014.1
20260505093730 49 292 0.0 1.7 0.00 0.00 0.00 86 1014.2
20260505093230 49 292 0.0 0.0 0.00 0.00 0.00 85 1014.3
20260505092820 49 292 0.0 0.0 0.00 0.00 0.00 85 1014.4
20260505092801 49 292 0.0 0.0 0.00 0.00 0.00 85 1014.4
20260505091722 49 292 0.0 0.0 0.00 0.00 0.00 85 1014.5
20260505091223 49 292 0.0 0.0 0.00 0.00 0.00 85 1014.5
20260505090718 49 292 0.0 0.0 0.00 0.00 0.00 85 1014.6
20260505090514 49 292 0.0 0.0 0.00 0.00 0.00 84 1014.7
20260505090028 50 292 0.0 1.7 0.00 0.00 0.00 84 1014.6
20260505085213 50 292 0.0 1.7 0.00 0.00 0.00 85 1014.6
20260505084712 49 292 0.0 1.7 0.00 0.00 0.00 85 1014.7
20260505084503 49 292 0.0 1.7 0.00 0.00 0.00 83 1014.7
20260505083716 49 269 0.0 0.9 0.00 0.00 0.00 83 1014.7
20260505083212 50 269 0.0 1.7 0.00 0.00 0.00 82 1014.6
20260505082713 50 269 0.0 1.7 0.00 0.00 0.00 82 1014.7
20260505082213 50 269 0.0 1.7 0.00 0.00 0.00 82 1014.5
20260505082036 50 269 0.0 1.7 0.00 0.00 0.00 82 1014.5
20260505081213 50 269 0.0 0.9 0.00 0.00 0.00 82 1014.4
20260505080712 50 147 0.0 0.9 0.00 0.00 0.00 81 1014.4
20260505080213 50 274 0.0 0.0 0.00 0.00 0.00 80 1014.2
20260505080023 50 274 0.0 0.0 0.00 0.00 0.00 80 1014.2
20260505075513 50 274 0.0 0.0 0.00 0.00 0.00 81 1014.2
20260505074712 51 274 0.0 0.0 0.00 0.00 0.00 80 1014.4
20260505074213 51 274 0.0 0.0 0.00 0.00 0.00 79 1014.3
20260505073713 51 274 0.0 0.9 0.00 0.00 0.00 79 1014.3
20260505073213 51 274 0.0 0.9 0.00 0.00 0.00 80 1014.3
20260505072713 51 274 0.0 0.0 0.00 0.00 0.00 80 1014.2
20260505072213 51 274 0.0 0.0 0.00 0.00 0.00 80 1014.2
20260505071713 51 274 0.0 0.0 0.00 0.00 0.00 79 1014.1
20260505071306 52 274 0.0 0.0 0.00 0.00 0.00 78 1014.2
20260505071247 51 274 0.0 0.0 0.00 0.00 0.00 78 1014.1
20260505070213 52 274 0.0 0.0 0.00 0.00 0.00 77 1014.2
20260505070027 52 274 0.0 0.9 0.00 0.00 0.00 78 1014.2
20260505065212 52 274 0.0 0.9 0.00 0.00 0.00 77 1014.1
20260505064712 52 274 0.0 0.0 0.00 0.00 0.00 75 1014.1
20260505064214 52 274 0.0 0.0 0.00 0.00 0.00 75 1014.2
20260505063712 53 274 0.0 0.0 0.00 0.00 0.00 75 1014.2
20260505063212 53 274 0.0 1.7 0.00 0.00 0.00 74 1014.4
20260505062713 53 274 0.0 1.7 0.00 0.00 0.00 75 1014.4
20260505062508 53 274 0.0 0.0 0.00 0.00 0.00 74 1014.3
20260505061712 53 274 0.0 0.0 0.00 0.00 0.00 75 1014.4
20260505061212 53 274 0.0 0.0 0.00 0.00 0.00 75 1014.4
20260505060712 53 274 0.0 0.0 0.00 0.00 0.00 75 1014.4
20260505060213 53 274 0.0 0.0 0.00 0.00 0.00 76 1014.4
20260505055712 53 274 0.0 0.0 0.00 0.00 0.00 75 1014.5
20260505055213 54 274 0.0 0.0 0.00 0.00 0.00 74 1014.5
20260505055120 54 274 0.0 0.0 0.00 0.00 0.00 71 1014.6
20260505055115 54 274 0.0 0.0 0.00 0.00 0.00 71 1014.4
20260505053713 54 274 0.0 0.0 0.00 0.00 0.00 72 1014.5
20260505053213 54 274 0.0 0.0 0.00 0.00 0.00 74 1014.5
20260505052712 55 274 0.0 1.7 0.00 0.00 0.00 72 1014.6
20260505052226 55 274 0.0 1.7 0.00 0.00 0.00 73 1014.5
20260505051713 55 274 0.0 0.0 0.00 0.00 0.00 73 1014.5
20260505051214 55 274 0.0 0.0 0.00 0.00 0.00 73 1014.6
20260505050713 55 274 0.0 0.0 0.00 0.00 0.00 71 1014.5
20260505050213 55 274 0.0 0.0 0.00 0.00 0.00 72 1014.5
20260505041712 56 266 0.0 0.0 0.00 0.00 0.00 70 1014.6
20260505041213 57 266 0.0 0.0 0.00 0.00 0.00 69 1014.5
20260505040713 57 266 0.0 0.0 0.00 0.00 0.00 69 1014.5
20260505040212 57 266 0.0 0.0 0.00 0.00 0.00 69 1014.5
20260505035714 58 266 0.0 0.0 0.00 0.00 0.00 68 1014.6
20260505035322 58 266 0.0 1.7 0.00 0.00 0.00 69 1014.6
20260505035255 58 266 0.0 1.7 0.00 0.00 0.00 69 1014.7
20260505034212 58 266 0.0 0.0 0.00 0.00 0.00 67 1014.7
20260505033713 58 266 0.0 0.0 0.00 0.00 0.00 67 1014.7
20260505033211 58 266 0.0 0.0 0.00 0.00 0.00 67 1014.7
20260505032712 58 266 0.0 0.0 0.00 0.00 0.00 66 1014.8
20260505032212 58 266 0.0 0.0 0.00 0.00 0.00 67 1014.8
20260505032015 59 266 0.0 0.0 0.00 0.00 0.00 67 1014.8
20260505031211 59 266 0.0 0.0 0.00 0.00 0.00 66 1014.8
20260505030711 60 266 0.0 0.0 0.00 0.00 0.00 65 1014.7
20260505030211 60 266 0.0 0.0 0.00 0.00 0.00 66 1014.8
20260505025711 60 266 0.0 1.7 0.00 0.00 0.00 65 1014.7
20260505025212 60 266 0.0 1.7 0.00 0.00 0.00 65 1014.7
20260505024712 60 266 0.0 1.7 0.00 0.00 0.00 65 1014.7
20260505024212 60 266 0.0 0.0 0.00 0.00 0.00 64 1014.6
20260505023711 60 266 0.0 0.0 0.00 0.00 0.00 64 1014.7
20260505023213 60 266 0.0 0.0 0.00 0.00 0.00 63 1014.6
20260505023014 61 266 0.0 0.0 0.00 0.00 0.00 63 1014.7
20260505022212 61 266 0.0 0.0 0.00 0.00 0.00 63 1014.6
20260505021713 61 266 0.0 0.9 0.00 0.00 0.00 63 1014.6
20260505021215 61 266 0.0 0.9 0.00 0.00 0.00 64 1014.6
20260505020706 61 266 0.0 0.0 0.00 0.00 0.00 64 1014.5
20260505020205 61 266 0.0 0.0 0.00 0.00 0.00 64 1014.4
20260505015707 61 266 0.0 0.0 0.00 0.00 0.00 63 1014.5
20260505015206 62 266 0.0 0.0 0.00 0.00 0.00 62 1014.5
20260505014705 62 266 0.0 0.0 0.00 0.00 0.00 61 1014.4